Regional Weather Roundup
Issued by NWS

Home | Current Version | Previous Version | Graphics & Text | Print | Product List | Glossary On
Versions: 1 2 3 4 5 6 7 8 9 10 11 12 13 14 15 16 17 18 19 20 21 22 23 24 25 26 27 28 29 30 31 32 33 34 35 36 37 38 39 40 41 42 43 44 45 46 47 48 49 50
000
ASUS43 KLOT 020803
RWRIL

ILLINOIS REGIONAL WEATHER ROUNDUP
NATIONAL WEATHER SERVICE CHICAGO/ROMEOVILLE IL
300 AM CDT MON MAY 02 2016

NOTE: "FAIR" INDICATES FEW OR NO CLOUDS BELOW 12,000 FEET WITH NO
SIGNIFICANT WEATHER AND/OR OBSTRUCTIONS TO VISIBILITY.

* THESE STATIONS ARE NOT UNDER NWS QUALITY CONTROL. THEY ALSO MAY NOT
  REPORT WEATHER SUCH AS PRECIPITATION OR FOG.

ILZ001-002-007-009-015-016-024-020900-
NORTHWEST ILLINOIS

CITY           SKY/WX    TMP DP  RH WIND       PRES   REMARKS
MOLINE         CLOUDY    50  46  86 CALM      30.06R
STERLING*      CLOUDY    48  46  93 NE8       30.05S
$$

ILZ003-004-008-010-011-017-018-020900-
NORTH CENTRAL ILLINOIS

CITY           SKY/WX    TMP DP  RH WIND       PRES   REMARKS
ROCKFORD       CLOUDY    47  43  86 NE8       30.07R
FREEPORT*      CLOUDY    46  45  95 N7        30.08R
DE KALB*       CLOUDY    45  42  89 N13       30.04S
$$

ILZ005-006-012>014-019>023-020900-
NORTHEAST ILLINOIS

CITY           SKY/WX    TMP DP  RH WIND       PRES   REMARKS
CHICAGO-OHARE  CLOUDY    45  41  86 NE13      30.01F
CHICAGO-MIDWAY CLOUDY    45  41  86 N12       30.01S
AURORA         CLOUDY    46  42  86 NE14      30.03R
LANSING*       CLOUDY    45  43  93 N7        29.99F
WAUKEGAN       CLOUDY    45  40  82 N9        30.04S
DUPAGE AIRPORT CLOUDY    45  40  82 NE9       30.02S
WHEELING       CLOUDY    45  40  82 N9        30.04R
NORTHERLY ISL    N/A     43  41  93 MISG        N/A
NORTHERLY ISL    N/A     43  41  93 MISG        N/A
$$

LMZ740>746-020900-
SOUTHERN LAKE MICHIGAN

STATION/POSITION SKY/WX   TEMP    WIND        PRES    VSBY  WAVE
                          AIR SEA DIR/SP/G                  HT/PER
                          (F)     (DEG/KT/KT) (MB)    (MI)  (FT/S)
SOUTHERN BUOY              42 40   40/  8/ 10 1017.0          2/ 4
HARRISON CRIB              44      20/ 17/ 20   N/A
BURNHAM HARBOR             43     340/ 13/ 15   N/A
CALUMET HARBOR             44     350/ 10/ 13 1015.6S
BURNS HARBOR               45      30/ 17/ 21 1015.9S
MICHIGAN CITY              45     350/ 16/ 17   N/A
ST. JOSEPH                 46 47                N/A           3/ 4
$$

ILZ025>027-034>036-040-047-049-050-058-095>099-020900-
WEST-CENTRAL ILLINOIS

CITY           SKY/WX    TMP DP  RH WIND       PRES   REMARKS
QUINCY         CLOUDY    49  48  97 NW8       30.06F
MACOMB*        CLOUDY    49  48  97 NW8       30.08S
$$

ILZ028>032-037-038-041>044-048-051>054-059>061-020900-
CENTRAL ILLINOIS

CITY           SKY/WX    TMP DP  RH WIND       PRES   REMARKS
BLOOMINGTON    CLOUDY    48  48 100 NW10      30.02R FOG
DECATUR        CLOUDY    51  46  83 NW9       30.00S
PEORIA         CLOUDY    48  45  89 N3        30.04S
SPRINGFIELD    CLOUDY    52  49  89 NW8       30.02S
TAYLORVILLE    NOT AVBL
$$

ILZ033-039-045-046-055>057-062-063-020900-
EAST-CENTRAL ILLINOIS

CITY           SKY/WX    TMP DP  RH WIND       PRES   REMARKS
CHAMPAIGN      CLOUDY    50  47  89 NW9       29.99R
MATTOON        CLOUDY    52  47  83 NW13      29.99R
$$

ILZ079-100>102-020900-
SOUTHWEST ILLINOIS

CITY           SKY/WX    TMP DP  RH WIND       PRES   REMARKS
ALTON          CLOUDY    51  47  87 NW7       30.03F
BELLEVILLE     MOCLDY    54  53  96 NW6       30.02F
CAHOKIA*       CLOUDY    55  48  77 NW9       30.04S
SPARTA*        CLOUDY    54  49  86 NW5       30.04S
$$

ILZ064>066-069>071-074>076-080>082-084>086-088>090-092>094-020900-
SOUTH-CENTRAL ILLINOIS

CITY           SKY/WX    TMP DP  RH WIND       PRES   REMARKS
CARBONDALE     PTCLDY    56  51  84 N9        30.02S
MT. VERNON     CLOUDY    54  46  76 N3        30.02S
SALEM*         CLEAR     54  50  86 NW7       30.01F
$$

ILZ067-068-072-073-078-083-087-091-020900-
SOUTHEAST ILLINOIS

CITY           SKY/WX    TMP DP  RH WIND       PRES   REMARKS
LAWRENCEVILLE  PTCLDY    56  52  86 N9        29.99R
FLORA*         PTCLDY    55  52  91 W5        30.00F
HARRISBURG*    CLEAR     56  53  89 N5        30.01F
ROBINSON*      CLEAR     52  50  93 NW7       30.00S
$$

ABBREVIATIONS USED IN REMARKS
   TC - TEMPERATURE IN CELSIUS
  WCI - WIND CHILL INDEX
   HX - HEAT INDEX
  VSB - VISIBILITY
$$





USA.gov is the U.S. government's official web portal to all federal, state and local government web resources and services.